CZ-6A DEB, 54275

Orbit data source: Space-Track

CZ-6A DEB, 54275 is space debris in SSO originally from a launch on Fri, 11 Nov 2022 UTC launched from the Taiyaun Space Center, China (TSC). Debris objects in space refer to the collection of defunct objects orbiting the Earth. Examples of debris include non-operational satellites, rocket bodies, and fragments generated from explosions, collisions, or faulty payload assembly.

Loading next visibility...
Identifier
54275, 2022-151S
Orbit
SSO
Country
Flag of CNCN / PRC
Related business
Manufacturer
SAST
Mission
Spacecraft
Bus & Motor
Unknown
Mass
Unknown
Launch date (UTC)
2022-11-11 (3 years ago)
Launch vehicle
Unknown
Launch site
Taiyaun Space Center, China (TSC)
Object type
Payload
Rocket body
Debris
Shape & HBR
Unknown shape, 0.1 m
Radar Cross Section
Small (<0.1 m²)

Expand to show TLE details & history
Last TLE update: 19 hours ago

TLE from 19 hours ago
0 CZ-6A DEB
1 54275U 22151S   25348.80835035  .00009369  00000-0  15888-2 0  9997
2 54275  98.8244  70.8660 0084345 134.0667 226.7521 14.67126466163129
Epoch: 2025-12-14T19:24Z
TLE epoch observation values (Epoch: 2025-12-14T19:24:01.470Z)
Latitude
0.00005°
Longitude
56.14391°
Altitude
714.236 km
Speed
7.477 km/s
True Right ascension
04h 43m 27s
True Declination
0° 00' 00"
Sunlit
Object was in full shadow at epoch
Visualization orbit readout
Latitude
Unknown
Longitude
Unknown
Altitude
Unknown
Speed
Unknown
Apparent Right ascension
Unknown
Apparent Declination
Unknown
Sunlit
N/A
Visualization observer readout
Local Sidereal Time
13:18:48
Azimuth
Unknown
Elevation
Unknown
Doppler factor
Unknown
Orbital elements
Apogee altitude
726.783 km
Perigee altitude
607.933 km
Semi-major axis
7,045.495 km
Eccentricity
0.00843
Inclination
98.8244°
RAAN
70.866°
Arg. of periapsis
134.0667°
True anomaly
226.05316°
Mean anomaly
226.7521°
Eccentric anomaly
226.40212°
Mean motion
3.67008 °/min
Orbital period
98.09 mins
BSTAR
0.0015888
Loading maneuver chart data...
Computing Atmospheric mass density...
Loading historical data...
Loading historical data...
Loading historical data...
Loading historical data...
Loading historical data...
Loading historical data...
Loading historical data...

Documentation

Showing up to 5 results
|